C/2020 K5 ( PanSTARRS )

Japanese version
Home page
Updated on June 14, 2021

---------------------------------------------------------------------

* Profile

Discovery Date May 25, 2020
Magnitude 20.7 mag
Discoverer Pan-STARRS1 1.8-m Ritchey-Chretien reflector at Haleakala

* Pictures

* Orbital Elements

Epoch 2021 May 26.0 TT = JDT 2459360.5
T 2021 June 5.57039 TT                                  Rudenko
q   1.5356376            (2000.0)            P               Q
z  -0.0009918      Peri.  249.58841     +0.33976534     +0.19780759
 +/-0.0000028      Node    86.16460     +0.00195118     +0.97748237
e   1.0015230      Incl.   67.15190     -0.94050822     +0.07348730
From 75 observations 2020 Apr. 3-2021 May 4, mean residual 0".5.

* Finding Charts

* Magnitudes Graph

        m1 = 14.0 + 5 log d + 8.0 log r(t + 200)

        * Gray curve is:  m1 = 10.5 + 5 log d + 10.0 log r

---------------------------------------------------------------------

The orbital elements are published on M.P.E.C. 2021-L04.
The charts are made with StellaNavigator Ver.10 (AstroArts).
The magnitudes graphs are made with Comet for Windows.

---------------------------------------------------------------------

Copyright(C) Seiichi Yoshida (comet@aerith.net). All rights reserved.